Вернуться в каталог

FENGYUN 1C DEB

АктивенSSO
NORAD 30231·DEBRIS·🇨🇳 China

Запущен May 10, 1999 с Taiyuan Satellite Launch Center

Loading…

Ближайшие Пролёты (ближайшие 24 часа)

TLE

СвежийSource: Space-Track

Эпоха: Sep 14, 2026, 01:34 UTC

1 30231U 99025WQ  26257.06549667  .00000672  00000-0  36133-3 0  9993
2 30231  98.7724 301.3708 0126748 327.8738  91.5978 14.12225310  9049

Отслеживайте FENGYUN 1C DEB в реальном времени с AllMySat

Download on the App Store